Meadville, PA

12:30 AM EST on December 16, 2019 (GMT -0500)
Port Meadville

Weather History for KGKJ - October, 2019

Change the Weather History Date:

Thursday, October 3, 2019

  Actual Average Record
Temperature  
Mean Temperature 68 °F -  
Max Temperature 78 °F 64 °F 82 °F (1951)
Min Temperature 57 °F 43 °F 30 °F (1958)
Cooling Degree Days 3    
Growing Degree Days 18 (Base 50)    
Moisture  
Dew Point 60 °F    
Average Humidity 88    
Maximum Humidity 97    
Minimum Humidity 74    
Precipitation  
Precipitation 0.11 in - - ()
Sea Level Pressure  
Sea Level Pressure 29.97 in    
Wind  
Wind Speed 7 mph ()    
Max Wind Speed 16 mph    
Max Gust Speed 23 mph    
Visibility 10.0 miles    
Events Rain    
Averages and records for this station are not official NWS values.
T = Trace of Precipitation, MM = Missing Value Source: Averaged Metar Reports

Daily Weather History Graph

Daily Weather History Graph

Search for Another Location

Airport or City:

Astronomy

Oct. 03, 2019 Rise Set
Actual Time 7:19 AM EDT 6:59 PM EDT
Civil Twilight 6:51 AM EDT 7:27 PM EDT
Nautical Twilight 6:19 AM EDT 7:59 PM EDT
Astronomical Twilight 5:47 AM EDT 8:31 PM EDT
Moon 12:53 PM EDT (10/3) 10:33 PM EDT (10/3)
Length of Visible Light 12h 35m
Length of Day
11h 40m
Waxing Crescent, 29% of the Moon is Illuminated
Oct 3
Waxing Crescent
Oct 5
First Quarter
Oct 13
Full
Oct 21
Last Quarter
Oct 27
New

Hourly Weather History & Observations

Time (EDT) Temp. Dew Point Humidity Pressure Visibility Wind Dir Wind Speed Gust Speed Precip Events Conditions
12:53 AM 59.0 °F 57.0 °F 93% 29.95 in 10.0 mi NE 11.5 mph - N/A   Overcast
1:26 AM 59.0 °F 57.9 °F 96% 29.96 in 10.0 mi NE 9.2 mph - N/A   Overcast
1:53 AM 59.0 °F 57.9 °F 96% 29.95 in 10.0 mi ENE 6.9 mph - N/A   Overcast
2:27 AM 59.0 °F 57.0 °F 93% 29.97 in 10.0 mi ENE 5.8 mph - N/A   Overcast
2:36 AM 59.0 °F 57.0 °F 93% 29.97 in 10.0 mi ENE 4.6 mph - N/A   Overcast
2:53 AM 59.0 °F 57.0 °F 93% 29.95 in 10.0 mi NE 5.8 mph - N/A   Overcast
3:53 AM 59.0 °F 57.9 °F 96% 29.96 in 10.0 mi NNE 5.8 mph - N/A   Overcast
4:04 AM 59.0 °F 57.9 °F 96% 29.97 in 10.0 mi NNE 4.6 mph - N/A   Overcast
4:53 AM 59.0 °F 57.0 °F 93% 29.96 in 10.0 mi East 6.9 mph - N/A   Overcast
5:53 AM 59.0 °F 57.0 °F 93% 29.96 in 10.0 mi East 4.6 mph - N/A   Overcast
6:34 AM 59.0 °F 57.0 °F 93% 29.98 in 10.0 mi East 5.8 mph - 0.10 in Rain Rain
6:48 AM 59.0 °F 57.2 °F 94% 29.99 in 10.0 mi Variable 3.5 mph - 0.10 in Rain Light Rain
6:53 AM 59.0 °F 57.0 °F 93% 29.99 in 10.0 mi Calm Calm - 0.10 in Rain Light Rain
7:03 AM 59.0 °F 57.0 °F 93% 29.99 in 10.0 mi East 5.8 mph - 0.01 in Rain Light Rain
7:14 AM 59.0 °F 57.0 °F 93% 29.97 in 10.0 mi Variable 3.5 mph - 0.01 in   Overcast
7:26 AM 59.0 °F 57.0 °F 93% 29.98 in 10.0 mi Calm Calm - 0.01 in   Overcast
7:53 AM 59.0 °F 57.0 °F 93% 29.95 in 10.0 mi ESE 3.5 mph - 0.01 in   Overcast
8:27 AM 60.1 °F 59.0 °F 96% 29.97 in 10.0 mi Calm Calm - 0.00 in Rain Light Rain
8:53 AM 61.0 °F 59.0 °F 93% 29.95 in 10.0 mi East 3.5 mph - 0.00 in   Overcast
9:53 AM 63.0 °F 61.0 °F 93% 29.95 in 10.0 mi Variable 3.5 mph - 0.00 in   Overcast
10:01 AM 63.0 °F 62.1 °F 97% 29.96 in 10.0 mi Variable 3.5 mph - N/A   Overcast
10:53 AM 64.9 °F 64.0 °F 97% 29.94 in 10.0 mi Variable 3.5 mph - N/A   Overcast
11:51 AM 69.8 °F 66.2 °F 88% 29.94 in 10.0 mi SSW 9.2 mph - N/A   Overcast
11:53 AM 70.0 °F 66.9 °F 90% 29.92 in 10.0 mi SSW 6.9 mph - N/A   Mostly Cloudy
12:23 PM 73.0 °F 68.0 °F 84% 29.93 in 10.0 mi SSW 10.4 mph 18.4 mph N/A   Overcast
12:50 PM 75.2 °F 68.0 °F 78% 29.92 in 10.0 mi SW 11.5 mph - N/A   Scattered Clouds
12:53 PM 75.9 °F 69.1 °F 79% 29.90 in 10.0 mi WSW 8.1 mph - N/A   Partly Cloudy
1:26 PM 75.9 °F 68.0 °F 76% 29.92 in 10.0 mi West 12.7 mph 20.7 mph N/A   Mostly Cloudy
1:53 PM 77.0 °F 68.0 °F 74% 29.88 in 10.0 mi West 12.7 mph - N/A   Overcast
2:53 PM 75.9 °F 68.0 °F 76% 29.88 in 10.0 mi West 8.1 mph - N/A   Mostly Cloudy
3:53 PM 77.0 °F 68.0 °F 74% 29.88 in 10.0 mi WNW 11.5 mph 17.3 mph N/A   Scattered Clouds
4:18 PM 75.0 °F 66.9 °F 76% 29.92 in 10.0 mi WNW 11.5 mph 18.4 mph N/A   Overcast
4:53 PM 73.0 °F 66.0 °F 79% 29.90 in 10.0 mi West 16.1 mph 23.0 mph N/A   Mostly Cloudy
5:53 PM 69.1 °F 64.0 °F 84% 29.94 in 10.0 mi West 15.0 mph 20.7 mph N/A   Overcast
6:53 PM 66.0 °F 62.1 °F 87% 29.97 in 10.0 mi West 10.4 mph 23.0 mph N/A   Overcast
7:01 PM 66.0 °F 61.0 °F 84% 29.98 in 10.0 mi West 13.8 mph 20.7 mph N/A   Overcast
7:53 PM 64.0 °F 60.1 °F 87% 30.00 in 10.0 mi West 11.5 mph 19.6 mph N/A   Mostly Cloudy
8:37 PM 63.0 °F 57.9 °F 84% 30.02 in 10.0 mi WNW 10.4 mph 21.9 mph N/A   Overcast
8:46 PM 63.0 °F 57.9 °F 84% 30.03 in 10.0 mi WNW 10.4 mph 16.1 mph N/A   Mostly Cloudy
8:53 PM 63.0 °F 57.9 °F 84% 30.03 in 10.0 mi NW 9.2 mph 16.1 mph N/A   Mostly Cloudy
9:05 PM 63.0 °F 57.0 °F 81% 30.04 in 10.0 mi NW 11.5 mph 18.4 mph N/A   Mostly Cloudy
9:27 PM 62.1 °F 57.0 °F 84% 30.04 in 10.0 mi NW 9.2 mph - N/A   Mostly Cloudy
9:53 PM 61.0 °F 55.9 °F 83% 30.04 in 10.0 mi NW 9.2 mph 16.1 mph N/A   Mostly Cloudy
10:10 PM 61.0 °F 55.9 °F 83% 30.05 in 10.0 mi NNW 5.8 mph - N/A   Mostly Cloudy
10:42 PM 60.1 °F 55.0 °F 83% 30.06 in 10.0 mi North 6.9 mph - N/A   Overcast
10:53 PM 59.0 °F 55.0 °F 87% 30.05 in 10.0 mi North 8.1 mph - N/A   Overcast
11:53 PM 57.9 °F 55.0 °F 90% 30.05 in 10.0 mi NNW 3.5 mph - N/A   Mostly Cloudy